Regional Weather Roundup
Issued by NWS

Home | Current Version | Previous Version | Graphics & Text | Print | Product List | Glossary On
Versions: 1 2 3 4 5 6 7 8 9 10 11 12 13 14 15 16 17 18 19 20 21 22 23 24 25 26 27
000
ASUS45 KSLC 212310
RWRUT

UTAH REGIONAL WEATHER ROUNDUP
NATIONAL WEATHER SERVICE SALT LAKE CITY UT
500 PM MDT TUE MAR 21 2017

UTZ001>011-023>025-220000-

NORTHERN UTAH

CITY           SKY/WX    TMP DP  RH WIND       PRES   REMARKS
BRIGHAM CITY     N/A     70  33  25 S12       29.86F
DUGWAY         PTSUNNY   73  23  15 SW15G22   29.82F
HILL AFB       MOSUNNY   69  29  22 S12       29.87F
LOGAN          PTSUNNY   71  31  22 S17       29.86F
OGDEN          PTSUNNY   71  29  21 SW16      29.85F
SALT LAKE CITY PTSUNNY   73  29  19 S21G30    29.84F
WENDOVER       PTSUNNY   75  28  17 SW24      29.78F VSB 3/4
HEBER CITY     PTSUNNY   64  27  24 SE6       29.93F

$$

UTZ011>015-024>027-220000-

CENTRAL/NORTHEAST UTAH

CITY           SKY/WX    TMP DP  RH WIND       PRES   REMARKS
PROVO AIRPORT  PTSUNNY   72  32  23 S23       29.90F
MOAB/CANYONLAN MOSUNNY   77  23  13 S21       29.94F
DELTA          PTSUNNY   72  23  16 SW28G40   29.91R
PRICE          PTSUNNY   67  26  21 S8G17     30.00F
RICHFIELD      MOSUNNY   70  28  21 S18G25    29.97S
ROOSEVELT      PTSUNNY   68  28  22 SW12G17   29.99F
VERNAL         CLOUDY    69  31  24 W9        29.97F

$$

UTZ013>016-019>022-027-220000-

SOUTHERN UTAH

CITY           SKY/WX    TMP DP  RH WIND       PRES   REMARKS
BRYCE CANYON   PTSUNNY   58  28  32 S14       30.13F
CEDAR CITY     PTSUNNY   66  26  22 SW25G31   30.00F
MILFORD        MOSUNNY   71  26  18 SW35G44   29.94F
ST GEORGE      MOCLDY    81  31  16 S20       29.91F
HANKSVILLE     PTSUNNY   77  27  15 SW20G29   29.96F
KANAB          SUNNY     73  27  17 S13G23    30.05F
BLANDING       PTSUNNY   69  23  18 W14G22    30.16S

$$

REGIONAL REPORTS     COLORADO/ARIZONA

CITY           SKY/WX    TMP DP  RH WIND       PRES   REMARKS
CRAIG, CO      CLOUDY    66  22  18 SW18G31   30.02F
GRAND JUNCTION MOSUNNY   73  22  14 S10G24    29.97F
RIFLE, CO      SUNNY     73  14  10 SW24G30   30.02S
MONTROSE, CO   CLOUDY    72  21  14 SW10G24   30.07F
CORTEZ, CO     CLOUDY    72  25  17 S14G20    30.09F
COLORADO CITY    N/A     72  32  23 SW9G17    30.04F
PAGE, AZ       SUNNY     78  19  11 MISG      29.97F
GRAND CANYON   MOSUNNY   68  20  16 S15G25    30.13S
KINGMAN, AZ    SUNNY     77   9   7 SW21      29.99S
FLAGSTAFF, AZ  SUNNY     63  24  22 SW21G32   30.16F

$$

REGIONAL REPORTS    NEVADA/IDAHO/WYOMING

CITY           SKY/WX    TMP DP  RH WIND       PRES   REMARKS
LAS VEGAS, NV  MOSUNNY   81  35  19 SW18G25   29.88F
ELY, NY        PTSUNNY   59  31  34 S32G40    29.93S
ELKO, NV       CLOUDY    60  34  37 SW9       29.81R
POCATELLO, ID  MOSUNNY   69  34  27 S17G23    29.82F
BURLEY, ID     CLOUDY    73  27  18 S10G24    29.75F
FORT BRIDGER,  CLOUDY    60  29  30 W17G24    30.05F
EVANSTON, WY   CLOUDY    59  26  28 SW13      30.01F
ROCK SPRINGS,  CLOUDY    58  36  43 N10       30.01S
KEMMERER, WY     N/A     54  28  37 SW14G20   30.03F

$$




USA.gov is the U.S. government's official web portal to all federal, state and local government web resources and services.